Track STARLINK-2161 now! 10-day predictions STARLINK-2161 is classified as:
1 47747U 21017AB 22222.36908164 -.00010632 00000-0 -69661-3 0 9992 2 47747 53.0538 310.4044 0001307 82.1753 277.9385 15.06364577 80854